Volver al catálogo

STARLINK-30256

ActivoComunicacionesVLEO
NORAD 57522·PAYLOAD·🇺🇸 United States

Lanzado Aug 8, 2023 desde Vandenberg Space Force Base

Loading…

Próximos Pases (próximas 24 horas)

TLE

ActualizadoSource: CelesTrak SupGP

Época: Sep 14, 2026, 20:56 UTC

1 57522C 23115B   26257.87270833 -.00005956  00000+0 -21564-3 0  2577
2 57522  43.0033  13.5192 0001632 266.4626 342.2534 15.27595006    15

Sigue STARLINK-30256 en tiempo real con AllMySat

Download on the App Store